Content
SEND FEEDBACK

Daily
Averages
Monthly
Summary
United States of America

WELLSVILLE, NEW YORK


Home > North America > United States > New York
Elevation: 1510 feet     Latitude: 42 06N     Longitude: 077 56W

WEATHER
 
SELECT A DAY
Number of Records: 186,033;   Date Range: 2/2/00 - 9/16/14
 
SHARE

PRINT THIS DATA

[ ← Previous Day ]
WEATHER ALMANAC - JANUARY 31, 2013
[ Next Day → ]
[ °C ]   °F
Weather ElementAverageHighLow
Temperature26.5 °F51.8 °F (12:12 am)17.6 °F (6:34 pm)
Dewpoint18.7 °F48.2 °F (12:12 am)7 °F (11:56 pm)
Humidity72.7 %89 % (3:56 am)54 % (12:14 pm)
Barometer29.38 in29.72 in (11:56 pm)29.08 in (2:05 am)
Wind Speed19.3 mph31.1 mph (6:43 am)
Wind Gust47.2 mph (5:43 am)
Weather ElementAverage
Visibility3.2 mi
Wind DirectionWSW (263.4 °)

Weather ElementTotal
Precipitation1.24 in
Heating Degree Days30.3 (Base 65)
Averaged from 103 records on January 31, 2013
WEATHER CONDITIONS BREAKOUT
WIND DIRECTION BREAKOUT
WEATHER BY HOUR - JANUARY 31, 2013
[ °C ]   °F
Local TimeTemperatureDewpointHumidityBarometerVisibilityWind DirectionWind SpeedGust SpeedPrecipitationEventsConditions
12:12 AM51.8 °F48.2 °F88 %29.11 in1.8 miSW (220°)12.7 mph20.7 mph0.11 inRainHeavy Rain
12:20 AM51.8 °F48.2 °F88 %29.11 in3.0 miSW (230°)15.0 mph21.9 mph0.15 inRainHeavy Rain
12:56 AM48.9 °F43.0 °F80 %29.10 in5.0 miWSW (250°)18.4 mph35.7 mph0.31 inRainRain
1:09 AM48.2 °F42.8 °F82 %29.11 in8.0 miSW (230°)16.1 mph26.5 mph0.02 inRainRain
1:44 AM46.4 °F39.2 °F76 %29.12 in5.0 miSW (230°)26.5 mph40.3 mph0.09 inRainHeavy Rain
1:56 AM45.0 °F39.0 °F80 %29.09 in5.0 miSW (220°)16.1 mph43.7 mph0.13 inRainLight Rain
2:05 AM44.6 °F39.2 °F81 %29.08 in10.0 miSW (220°)13.8 mph24.2 mph0.00 inRainLight Rain
2:29 AM37.4 °F33.8 °F87 %29.14 in6.0 miWest (280°)27.6 mph38.0 mph0.02 inRainRain
2:56 AM36.0 °F32.0 °F86 %29.14 in5.0 miWest (260°)16.1 mph31.1 mph0.04 inSnowLight Snow
3:44 AM35.6 °F30.2 °F81 %29.13 in2.0 miWest (270°)15.0 mph21.9 mph0.01 inSnowLight Snow
3:46 AM33.8 °F30.2 °F87 %29.13 in1.8 miWest (260°)13.8 mph21.9 mph0.02 inSnowLight Snow
3:56 AM34.0 °F30.9 °F89 %29.16 in0.8 miWest (260°)9.2 mph0.03 inSnowLight Snow
4:12 AM33.8 °F30.2 °F87 %29.13 in0.8 miWest (270°)21.9 mph33.4 mph0.03 inSnowLight Snow
4:23 AM33.8 °F28.4 °F81 %29.14 in0.8 miWest (280°)19.6 mph36.8 mph0.04 inSnowLight Snow
4:30 AM33.8 °F28.4 °F81 %29.15 in2.0 miWest (260°)19.6 mph35.7 mph0.04 inSnowLight Snow
4:37 AM33.8 °F28.4 °F81 %29.16 in1.5 miWest (260°)12.7 mph35.7 mph0.04 inSnowLight Snow
4:43 AM33.8 °F28.4 °F81 %29.16 in3.0 miWest (260°)18.4 mph27.6 mph0.04 inSnowLight Snow
4:56 AM33.1 °F27.0 °F78 %29.18 in9.0 miWest (260°)17.3 mph31.1 mph0.04 inOvercast
5:02 AM32.0 °F28.4 °F87 %29.16 in1.5 miWest (260°)11.5 mph27.6 mph0.00 inSnowLight Snow
5:04 AM32.0 °F28.4 °F87 %29.16 in1.0 miWest (270°)15.0 mph24.2 mph0.00 inSnowLight Snow
5:11 AM32.0 °F28.4 °F87 %29.17 in0.8 miWest (270°)17.3 mph26.5 mph0.00 inSnowLight Snow
5:19 AM32.0 °F26.6 °F80 %29.18 in1.5 miWest (280°)26.5 mph40.3 mph0.00 inSnowLight Snow
5:24 AM30.2 °F26.6 °F86 %29.19 in2.5 miWest (270°)24.2 mph40.3 mph0.00 inSnowLight Snow
5:32 AM30.2 °F26.6 °F86 %29.20 in3.0 miWest (280°)27.6 mph38.0 mph0.00 inSnowLight Snow
5:43 AM30.2 °F23.0 °F75 %29.20 in9.0 miWest (270°)29.9 mph47.2 mph0.00 inOvercast
5:56 AM30.0 °F19.9 °F66 %29.24 in10.0 miWest (270°)26.5 mph47.2 mph0.00 inOvercast
6:43 AM28.4 °F19.4 °F69 %29.26 in1.8 miWest (270°)31.1 mph42.6 mph0.00 inSnowLight Snow
6:48 AM26.6 °F19.4 °F74 %29.27 in0.5 miWest (270°)24.2 mph43.7 mph0.00 inSnowSnow
6:56 AM26.1 °F21.0 °F81 %29.31 in0.5 miWest (280°)25.3 mph35.7 mph0.00 inSnowSnow
7:01 AM26.6 °F21.2 °F80 %29.28 in1.2 miWest (270°)25.3 mph35.7 mph0.00 inSnowLight Snow
7:05 AM26.6 °F19.4 °F74 %29.28 in3.0 miWest (270°)18.4 mph31.1 mph0.00 inSnowLight Snow
7:11 AM26.6 °F21.2 °F80 %29.29 in1.5 miWest (270°)19.6 mph31.1 mph0.00 inSnowLight Snow
7:20 AM26.6 °F21.2 °F80 %29.30 in0.5 miWest (270°)19.6 mph31.1 mph0.01 inSnowSnow
7:33 AM26.6 °F19.4 °F74 %29.30 in2.0 miWest (260°)19.6 mph46.0 mph0.01 inSnowLight Snow
7:39 AM26.6 °F17.6 °F69 %29.30 in5.0 miWSW (250°)17.3 mph36.8 mph0.01 inSnowLight Snow
7:52 AM26.6 °F17.6 °F69 %29.30 in3.0 miWest (270°)16.1 mph36.8 mph0.01 inSnowLight Snow
7:56 AM27.0 °F18.0 °F69 %29.34 in2.5 miWest (270°)21.9 mph36.8 mph0.01 inSnowLight Snow
8:02 AM26.6 °F19.4 °F74 %29.31 in0.8 miWest (270°)17.3 mph32.2 mph0.00 inSnowLight Snow
8:11 AM26.6 °F19.4 °F74 %29.31 in0.5 miWest (270°)21.9 mph31.1 mph0.00 inSnowSnow
8:18 AM26.6 °F19.4 °F74 %29.32 in1.0 miWest (280°)21.9 mph29.9 mph0.00 inSnowLight Snow
8:28 AM26.6 °F19.4 °F74 %29.32 in3.0 miWest (270°)21.9 mph39.1 mph0.00 inSnowLight Snow
8:41 AM26.6 °F17.6 °F69 %29.32 in10.0 miWest (260°)23.0 mph34.5 mph0.00 inOvercast
8:56 AM27.0 °F17.1 °F66 %29.36 in10.0 miWest (270°)12.7 mph35.7 mph0.00 inOvercast
9:07 AM26.6 °F17.6 °F69 %29.33 in1.8 miWest (270°)27.6 mph43.7 mph0.00 inSnowLight Snow
9:39 AM24.8 °F19.4 °F80 %29.36 in0.5 miWNW (290°)18.4 mph29.9 mph0.00 inSnowSnow
9:48 AM24.8 °F19.4 °F80 %29.36 in0.2 miWest (280°)25.3 mph33.4 mph0.00 inSnowHeavy Snow
9:54 AM24.8 °F19.4 °F80 %29.36 in0.2 miWest (280°)23.0 mph33.4 mph0.00 inSnowHeavy Snow
9:56 AM25.0 °F19.0 °F78 %29.40 in0.2 miWest (270°)24.2 mph33.4 mph0.00 inSnowHeavy Snow
10:00 AM24.8 °F17.6 °F74 %29.36 in0.8 miWest (270°)24.2 mph33.4 mph0.00 inSnowLight Snow
10:07 AM26.6 °F17.6 °F69 %29.36 in2.0 miWest (280°)19.6 mph39.1 mph0.00 inSnowLight Snow
10:13 AM24.8 °F17.6 °F74 %29.36 in0.8 miWest (280°)21.9 mph35.7 mph0.00 inSnowLight Snow
10:22 AM24.8 °F19.4 °F80 %29.37 in0.5 miWest (280°)19.6 mph32.2 mph0.00 inSnowSnow
10:33 AM24.8 °F19.4 °F80 %29.38 in0.2 miWest (280°)20.7 mph32.2 mph0.01 inSnowHeavy Snow
10:53 AM24.8 °F17.6 °F74 %29.37 in1.0 miWest (280°)20.7 mph39.1 mph0.01 inSnowLight Snow
10:56 AM25.0 °F16.0 °F69 %29.41 in1.5 miWest (280°)27.6 mph41.4 mph0.01 inSnowLight Snow
11:03 AM24.8 °F14.0 °F64 %29.38 in1.2 miWest (270°)23.0 mph41.4 mph0.00 inMostly Cloudy
11:06 AM24.8 °F12.2 °F59 %29.38 in2.5 miWest (270°)31.1 mph44.9 mph0.00 inMostly Cloudy
11:13 AM26.6 °F12.2 °F55 %29.38 in3.0 miWest (270°)31.1 mph44.9 mph0.00 inSnowBlowing Snow
11:25 AM24.8 °F12.2 °F59 %29.38 in1.8 miWest (280°)31.1 mph41.4 mph0.00 inSnowBlowing Snow
11:35 AM24.8 °F12.2 °F59 %29.39 in3.0 miWest (270°)21.9 mph40.3 mph0.00 inMostly Cloudy
11:56 AM25.0 °F10.9 °F55 %29.44 in10.0 miWest (270°)20.7 mph31.1 mph0.00 inMostly Cloudy
12:14 PM24.8 °F10.4 °F54 %29.41 in2.0 miWest (260°)17.3 mph44.9 mph0.00 inSnowLight Snow
12:22 PM24.8 °F10.4 °F54 %29.42 in10.0 miWest (270°)17.3 mph28.8 mph0.00 inOvercast
12:38 PM23.0 °F12.2 °F63 %29.42 in1.8 miWest (280°)29.9 mph46.0 mph0.00 inSnowLight Snow
12:49 PM24.8 °F10.4 °F54 %29.43 in3.0 miWest (270°)19.6 mph33.4 mph0.00 inOvercast
12:56 PM24.1 °F10.9 °F57 %29.47 in8.0 miWSW (250°)15.0 mph33.4 mph0.00 inOvercast
1:56 PM23.0 °F10.0 °F58 %29.50 in5.0 miWest (260°)18.4 mph31.1 mph0.00 inSnowLight Snow
1:59 PM23.0 °F12.2 °F63 %29.45 in1.5 miWSW (240°)20.7 mph31.1 mph0.00 inSnowLight Snow
2:05 PM21.2 °F14.0 °F74 %29.45 in0.8 miWest (270°)21.9 mph39.1 mph0.00 inSnowLight Snow
2:11 PM23.0 °F10.4 °F59 %29.46 in2.5 miWest (270°)20.7 mph39.1 mph0.00 inSnowLight Snow
2:14 PM23.0 °F10.4 °F59 %29.46 in5.0 miWSW (250°)15.0 mph39.1 mph0.00 inSnowLight Snow
2:17 PM21.2 °F12.2 °F68 %29.46 in1.5 miWest (260°)24.2 mph34.5 mph0.00 inSnowLight Snow
2:30 PM23.0 °F12.2 °F63 %29.46 in3.0 miWest (270°)18.4 mph35.7 mph0.00 inSnowLight Snow
2:41 PM21.2 °F12.2 °F68 %29.47 in2.5 miWest (270°)15.0 mph29.9 mph0.00 inSnowLight Snow
2:48 PM21.2 °F12.2 °F68 %29.47 in1.2 miWest (260°)20.7 mph32.2 mph0.00 inSnowLight Snow
2:54 PM21.2 °F12.2 °F68 %29.47 in3.0 miWSW (250°)16.1 mph29.9 mph0.00 inSnowLight Snow
3:12 PM21.2 °F12.2 °F68 %29.49 in1.8 miWest (260°)16.1 mph27.6 mph0.00 inSnowLight Snow
3:34 PM21.2 °F15.8 °F80 %29.50 in0.5 miWest (260°)19.6 mph27.6 mph0.00 inSnowSnow
3:47 PM21.2 °F14.0 °F74 %29.51 in1.2 miWest (260°)18.4 mph28.8 mph0.00 inSnowLight Snow
3:56 PM21.0 °F12.0 °F68 %29.58 in4.0 miWest (260°)16.1 mph29.9 mph0.00 inSnowLight Snow
4:18 PM21.2 °F10.4 °F63 %29.52 in2.0 miWest (270°)15.0 mph36.8 mph0.00 inSnowLight Snow
4:26 PM21.2 °F10.4 °F63 %29.53 in9.0 miWest (260°)15.0 mph29.9 mph0.00 inOvercast
4:41 PM19.4 °F12.2 °F74 %29.53 in1.8 miWest (260°)17.3 mph28.8 mph0.00 inSnowLight Snow
4:46 PM19.4 °F12.2 °F74 %29.54 in2.0 miWest (260°)24.2 mph32.2 mph0.00 inSnowLight Snow
4:49 PM19.4 °F10.4 °F68 %29.54 in3.0 miWest (260°)17.3 mph32.2 mph0.00 inSnowLight Snow
4:56 PM19.9 °F10.0 °F65 %29.62 in4.0 miWest (260°)13.8 mph36.8 mph0.00 inSnowLight Snow
5:56 PM19.9 °F9.0 °F62 %29.65 in10.0 miWest (270°)15.0 mph23.0 mph0.00 inOvercast
6:11 PM19.4 °F10.4 °F68 %29.58 in2.5 miWSW (250°)17.3 mph31.1 mph0.00 inSnowLight Snow
6:17 PM19.4 °F10.4 °F68 %29.58 in3.0 miWest (260°)15.0 mph31.1 mph0.00 inSnowLight Snow
6:26 PM19.4 °F10.4 °F68 %29.59 in2.5 miWSW (250°)16.1 mph23.0 mph0.00 inSnowLight Snow
6:34 PM17.6 °F12.2 °F79 %29.59 in1.2 miWest (260°)13.8 mph25.3 mph0.00 inSnowLight Snow
6:41 PM19.4 °F10.4 °F68 %29.59 in4.0 miWSW (250°)17.3 mph29.9 mph0.00 inSnowLight Snow
6:56 PM18.0 °F10.9 °F74 %29.69 in3.0 miWSW (250°)10.4 mph24.2 mph0.00 inSnowLight Snow
7:39 PM17.6 °F8.6 °F68 %29.60 in9.0 miWest (260°)18.4 mph26.5 mph0.00 inSnowLight Snow
7:56 PM18.0 °F8.1 °F65 %29.69 in8.0 miWest (260°)15.0 mph24.2 mph0.00 inSnowLight Snow
9:29 PM17.6 °F10.4 °F73 %29.61 in2.0 miWSW (250°)15.0 mph19.6 mph0.00 inSnowLight Snow
9:43 PM17.6 °F12.2 °F79 %29.62 in1.8 miWSW (250°)10.4 mph20.7 mph0.00 inSnowLight Snow
9:56 PM18.0 °F12.0 °F78 %29.71 in1.8 miWSW (250°)13.8 mph21.9 mph0.00 inSnowLight Snow
10:06 PM17.6 °F10.4 °F73 %29.62 in2.5 miWest (260°)12.7 mph23.0 mph0.00 inSnowLight Snow
10:23 PM17.6 °F12.2 °F79 %29.62 in1.8 miWSW (250°)11.5 mph20.7 mph0.00 inSnowLight Snow
10:29 PM17.6 °F10.4 °F73 %29.62 in3.0 miWest (270°)15.0 mph20.7 mph0.00 inSnowLight Snow
10:56 PM18.0 °F9.0 °F68 %29.70 in10.0 miWest (260°)16.1 mph26.5 mph0.00 inMostly Cloudy
11:56 PM18.0 °F7.0 °F62 %29.72 in10.0 miWest (260°)13.8 mph20.7 mph0.00 inMostly Cloudy
Hourly data recorded from KELZ, located miles away from Wellsville, New York







STORIES FROM OUR PARTNERS